• En España
  • Lista de países
  • Para 7 días
  • Temperatura del agua
  • Mapa Satelital
  • El tiempo en el mapa
  • Informadores
  • user-avatar
    Iniciar sesión

    Tiempo cada hora Quarteira

    Hoy, 22 Noviembre, Miércoles

    Tiempo Temperatura Precipitaciones Viento Presión Humedad
    00:00 +14°C° 0 mm 2 mps 761 mmHg 74%
    01:00 +13°C° 0 mm 2 mps 761 mmHg 76%
    02:00 +12°C° 0 mm 3 mps 761 mmHg 77%
    03:00 +12°C° 0 mm 3 mps 760 mmHg 80%
    04:00 +12°C° 0 mm 3 mps 760 mmHg 84%
    05:00 +12°C° 0 mm 3 mps 760 mmHg 87%
    06:00 +13°C° 0 mm 3 mps 760 mmHg 82%
    07:00 +16°C° 0 mm 3 mps 760 mmHg 78%
    08:00 +17°C° 0 mm 3 mps 760 mmHg 73%
    09:00 +19°C° 0 mm 4 mps 760 mmHg 64%
    10:00 +21°C° 0 mm 4 mps 760 mmHg 54%
    11:00 +23°C° 0 mm 4 mps 760 mmHg 45%
    12:00 +23°C° 0 mm 4 mps 760 mmHg 44%
    13:00 +23°C° 0 mm 4 mps 759 mmHg 44%
    14:00 +25°C° 0 mm 4 mps 759 mmHg 43%
    15:00 +21°C° 0 mm 4 mps 759 mmHg 55%
    16:00 +19°C° 0 mm 4 mps 759 mmHg 67%
    17:00 +17°C° 0 mm 3 mps 759 mmHg 79%
    18:00 +17°C° 0 mm 3 mps 759 mmHg 83%
    19:00 +17°C° 0 mm 3 mps 760 mmHg 86%
    20:00 +17°C° 0 mm 3 mps 760 mmHg 89%
    21:00 +17°C° 0 mm 3 mps 760 mmHg 90%
    22:00 +16°C° 0 mm 3 mps 760 mmHg 91%
    23:00 +16°C° 0 mm 3 mps 760 mmHg 92%

    Mañana, 23 Noviembre, Jueves

    Tiempo Temperatura Precipitaciones Viento Presión Humedad
    00:00 +15°C° 0 mm 4 mps 760 mmHg 92%
    01:00 +15°C° 0 mm 4 mps 760 mmHg 92%
    02:00 +14°C° 0 mm 4 mps 760 mmHg 92%
    03:00 +14°C° 0 mm 4 mps 760 mmHg 92%
    04:00 +14°C° 0 mm 4 mps 760 mmHg 92%
    05:00 +14°C° 0 mm 4 mps 760 mmHg 93%
    06:00 +16°C° 0 mm 5 mps 760 mmHg 86%
    07:00 +17°C° 0 mm 5 mps 760 mmHg 80%
    08:00 +19°C° 0 mm 6 mps 761 mmHg 74%
    09:00 +21°C° 0 mm 7 mps 761 mmHg 61%
    10:00 +22°C° 0 mm 7 mps 761 mmHg 49%
    11:00 +24°C° 0 mm 8 mps 761 mmHg 37%
    12:00 +24°C° 0 mm 8 mps 761 mmHg 38%
    13:00 +24°C° 0 mm 7 mps 760 mmHg 38%
    14:00 +23°C° 0 mm 7 mps 760 mmHg 39%
    15:00 +22°C° 0,2 mm 6 mps 761 mmHg 49%
    16:00 +20°C° 0,2 mm 5 mps 761 mmHg 58%
    17:00 +19°C° 0,2 mm 4 mps 761 mmHg 68%
    18:00 +18°C° 0 mm 4 mps 761 mmHg 66%
    19:00 +18°C° 0 mm 4 mps 762 mmHg 65%
    20:00 +18°C° 0 mm 4 mps 762 mmHg 64%
    21:00 +17°C° 0 mm 4 mps 762 mmHg 72%
    22:00 +17°C° 0 mm 4 mps 762 mmHg 80%
    23:00 +15°C° 0 mm 4 mps 762 mmHg 88%

    Pasado mañana, 24 Noviembre, Viernes

    Tiempo Temperatura Precipitaciones Viento Presión Humedad
    00:00 +15°C° 0 mm 4 mps 762 mmHg 89%
    01:00 +15°C° 0 mm 4 mps 761 mmHg 89%
    02:00 +15°C° 0 mm 4 mps 761 mmHg 90%
    03:00 +15°C° 0 mm 4 mps 761 mmHg 89%
    04:00 +15°C° 0 mm 4 mps 761 mmHg 88%
    05:00 +15°C° 0 mm 5 mps 761 mmHg 87%
    06:00 +16°C° 0 mm 5 mps 761 mmHg 80%
    07:00 +17°C° 0 mm 5 mps 762 mmHg 73%
    08:00 +19°C° 0 mm 5 mps 762 mmHg 66%
    09:00 +21°C° 0 mm 6 mps 762 mmHg 55%
    10:00 +23°C° 0 mm 6 mps 762 mmHg 44%
    11:00 +26°C° 0 mm 6 mps 762 mmHg 33%
    12:00 +26°C° 0 mm 6 mps 762 mmHg 33%
    13:00 +26°C° 0 mm 6 mps 761 mmHg 34%
    14:00 +26°C° 0 mm 5 mps 761 mmHg 35%
    15:00 +23°C° 0 mm 5 mps 761 mmHg 42%
    16:00 +21°C° 0 mm 4 mps 761 mmHg 50%
    17:00 +19°C° 0 mm 3 mps 761 mmHg 57%
    18:00 +18°C° 0 mm 3 mps 761 mmHg 63%
    19:00 +18°C° 0 mm 3 mps 762 mmHg 68%
    20:00 +17°C° 0 mm 2 mps 762 mmHg 74%
    21:00 +17°C° 0 mm 2 mps 762 mmHg 73%
    22:00 +18°C° 0 mm 2 mps 762 mmHg 73%
    23:00 +18°C° 0 mm 2 mps 762 mmHg 72%

    25 Noviembre, Sábado

    Tiempo Temperatura Precipitaciones Viento Presión Humedad
    00:00 +18°C° 0 mm 2 mps 762 mmHg 73%
    01:00 +19°C° 0 mm 1 mps 762 mmHg 74%
    02:00 +19°C° 0 mm 1 mps 762 mmHg 74%
    03:00 +18°C° 0 mm 1 mps 762 mmHg 76%
    04:00 +16°C° 0 mm 2 mps 762 mmHg 78%
    05:00 +16°C° 0 mm 2 mps 762 mmHg 80%
    06:00 +17°C° 0 mm 2 mps 762 mmHg 76%
    07:00 +18°C° 0 mm 2 mps 762 mmHg 71%
    08:00 +19°C° 0 mm 2 mps 763 mmHg 66%
    09:00 +20°C° 0 mm 2 mps 763 mmHg 61%
    10:00 +21°C° 0 mm 2 mps 763 mmHg 55%
    11:00 +23°C° 0 mm 2 mps 763 mmHg 50%
    12:00 +24°C° 0 mm 2 mps 762 mmHg 47%
    13:00 +24°C° 0 mm 2 mps 762 mmHg 44%
    14:00 +25°C° 0 mm 2 mps 762 mmHg 41%
    15:00 +23°C° 0 mm 2 mps 762 mmHg 48%
    16:00 +21°C° 0 mm 2 mps 763 mmHg 54%
    17:00 +19°C° 0 mm 2 mps 763 mmHg 60%
    18:00 +19°C° 0 mm 2 mps 763 mmHg 62%
    19:00 +18°C° 0 mm 2 mps 764 mmHg 64%
    20:00 +18°C° 0 mm 3 mps 764 mmHg 65%
    21:00 +18°C° 0 mm 3 mps 764 mmHg 65%
    22:00 +18°C° 0 mm 4 mps 764 mmHg 65%
    23:00 +17°C° 0 mm 4 mps 763 mmHg 65%

    26 Noviembre, Domingo

    Tiempo Temperatura Precipitaciones Viento Presión Humedad
    00:00 +17°C° 0 mm 4 mps 763 mmHg 63%
    01:00 +17°C° 0 mm 4 mps 763 mmHg 60%
    02:00 +18°C° 0 mm 3 mps 763 mmHg 58%
    03:00 +17°C° 0,1 mm 3 mps 763 mmHg 61%
    04:00 +17°C° 0,1 mm 4 mps 763 mmHg 63%
    05:00 +17°C° 0,1 mm 4 mps 763 mmHg 66%
    06:00 +17°C° 0,2 mm 4 mps 764 mmHg 71%
    07:00 +17°C° 0,2 mm 4 mps 764 mmHg 76%
    08:00 +15°C° 0,2 mm 5 mps 765 mmHg 80%
    09:00 +16°C° 0 mm 5 mps 765 mmHg 77%
    10:00 +17°C° 0 mm 5 mps 765 mmHg 74%
    11:00 +17°C° 0 mm 5 mps 765 mmHg 72%
    12:00 +19°C° 0 mm 5 mps 765 mmHg 66%
    13:00 +20°C° 0 mm 4 mps 765 mmHg 60%
    14:00 +21°C° 0 mm 4 mps 764 mmHg 54%
    15:00 +20°C° 0,1 mm 4 mps 764 mmHg 59%
    16:00 +19°C° 0,1 mm 4 mps 765 mmHg 63%
    17:00 +18°C° 0,1 mm 4 mps 765 mmHg 68%
    18:00 +17°C° 0 mm 4 mps 765 mmHg 68%
    19:00 +16°C° 0 mm 5 mps 765 mmHg 68%
    20:00 +16°C° 0 mm 5 mps 765 mmHg 68%
    21:00 +16°C° 0 mm 5 mps 765 mmHg 68%
    22:00 +15°C° 0 mm 5 mps 765 mmHg 68%
    23:00 +15°C° 0 mm 5 mps 765 mmHg 67%

    27 Noviembre, Lunes

    Tiempo Temperatura Precipitaciones Viento Presión Humedad
    00:00 +15°C° 0 mm 5 mps 764 mmHg 66%
    01:00 +15°C° 0 mm 5 mps 764 mmHg 64%
    02:00 +15°C° 0 mm 5 mps 764 mmHg 62%
    03:00 +16°C° 0 mm 6 mps 764 mmHg 63%
    04:00 +16°C° 0 mm 6 mps 764 mmHg 63%
    05:00 +16°C° 0 mm 6 mps 764 mmHg 64%
    06:00 +16°C° 0 mm 6 mps 764 mmHg 63%
    07:00 +17°C° 0 mm 6 mps 764 mmHg 63%
    08:00 +17°C° 0 mm 6 mps 764 mmHg 63%
    09:00 +17°C° 0 mm 5 mps 764 mmHg 63%
    10:00 +19°C° 0 mm 5 mps 764 mmHg 62%
    11:00 +20°C° 0 mm 5 mps 764 mmHg 62%
    12:00 +20°C° 0,1 mm 6 mps 763 mmHg 63%
    13:00 +20°C° 0,1 mm 6 mps 763 mmHg 64%
    14:00 +21°C° 0,1 mm 6 mps 762 mmHg 65%
    15:00 +20°C° 0 mm 6 mps 762 mmHg 70%
    16:00 +19°C° 0 mm 6 mps 762 mmHg 75%
    17:00 +17°C° 0 mm 6 mps 762 mmHg 80%
    18:00 +17°C° 0 mm 6 mps 761 mmHg 82%
    19:00 +17°C° 0 mm 5 mps 761 mmHg 84%
    20:00 +17°C° 0 mm 5 mps 761 mmHg 86%
    21:00 +17°C° 0,3 mm 5 mps 761 mmHg 89%
    22:00 +17°C° 0,3 mm 5 mps 760 mmHg 92%
    23:00 +16°C° 0,3 mm 5 mps 760 mmHg 95%
    Mostrar más